| time (UTC) | temp F | wind direction | speed knots | gust knots | rain 1hr in | rain 24hr in | rain mn in | humidity % | barometer mb |
| 20260831021746 | 88 | 0 | 0.0 | 1.7 | 0.00 | 0.00 | 0.00 | 50 | 1013.0 |
| 20260831021246 | 89 | 0 | 0.0 | 1.7 | 0.00 | 0.00 | 0.00 | 49 | 1012.9 |
| 20260831020745 | 89 | 0 | 0.0 | 0.9 | 0.00 | 0.00 | 0.00 | 48 | 1012.9 |
| 20260831015745 | 90 | 0 | 0.0 | 0.9 | 0.00 | 0.00 | 0.00 | 46 | 1012.8 |
| 20260831015246 | 90 | 0 | 0.0 | 1.7 | 0.00 | 0.00 | 0.00 | 45 | 1012.7 |
| 20260831014746 | 90 | 156 | 0.9 | 1.7 | 0.00 | 0.00 | 0.00 | 44 | 1012.7 |
| 20260831014246 | 90 | 156 | 0.9 | 1.7 | 0.00 | 0.00 | 0.00 | 43 | 1012.6 |
| 20260831013746 | 90 | 156 | 0.9 | 1.7 | 0.00 | 0.00 | 0.00 | 43 | 1012.6 |
| 20260831013246 | 91 | 156 | 0.9 | 1.7 | 0.00 | 0.00 | 0.00 | 43 | 1012.6 |
| 20260831012745 | 91 | 160 | 0.9 | 1.7 | 0.00 | 0.00 | 0.00 | 43 | 1012.6 |
| 20260831012247 | 91 | 163 | 0.9 | 2.6 | 0.00 | 0.00 | 0.00 | 43 | 1012.6 |
| 20260831011746 | 92 | 158 | 0.9 | 2.6 | 0.00 | 0.00 | 0.00 | 43 | 1012.5 |
| 20260831011246 | 92 | 150 | 0.9 | 1.7 | 0.00 | 0.00 | 0.00 | 43 | 1012.4 |
| 20260831010746 | 92 | 152 | 0.9 | 1.7 | 0.00 | 0.00 | 0.00 | 42 | 1012.4 |
| 20260831005745 | 93 | 151 | 1.7 | 3.5 | 0.00 | 0.00 | 0.00 | 41 | 1012.3 |
| 20260831005246 | 93 | 149 | 1.7 | 3.5 | 0.00 | 0.00 | 0.00 | 40 | 1012.3 |
| 20260831004746 | 93 | 148 | 1.7 | 3.5 | 0.00 | 0.00 | 0.00 | 39 | 1012.3 |
| 20260831004246 | 94 | 151 | 1.7 | 3.5 | 0.00 | 0.00 | 0.00 | 39 | 1012.3 |
| 20260831003747 | 94 | 153 | 1.7 | 4.3 | 0.00 | 0.00 | 0.00 | 38 | 1012.3 |
| 20260831003246 | 94 | 151 | 1.7 | 4.3 | 0.00 | 0.00 | 0.00 | 38 | 1012.2 |
| 20260831002746 | 95 | 150 | 1.7 | 4.3 | 0.00 | 0.00 | 0.00 | 38 | 1012.2 |
| 20260831002245 | 95 | 150 | 2.6 | 4.3 | 0.00 | 0.00 | 0.00 | 37 | 1012.3 |
| 20260831001746 | 96 | 149 | 1.7 | 4.3 | 0.00 | 0.00 | 0.00 | 37 | 1012.2 |
| 20260831001247 | 96 | 149 | 2.6 | 4.3 | 0.00 | 0.00 | 0.00 | 36 | 1012.3 |
| 20260831000746 | 96 | 150 | 2.6 | 4.3 | 0.00 | 0.00 | 0.00 | 36 | 1012.3 |
| 20260831000248 | 97 | 147 | 2.6 | 4.3 | 0.00 | 0.00 | 0.00 | 34 | 1012.3 |
| 20260830235247 | 97 | 145 | 2.6 | 5.2 | 0.00 | 0.00 | 0.00 | 33 | 1012.3 |
| 20260830233746 | 98 | 147 | 2.6 | 6.1 | 0.00 | 0.00 | 0.00 | 32 | 1012.3 |
| 20260830233246 | 98 | 148 | 2.6 | 5.2 | 0.00 | 0.00 | 0.00 | 32 | 1012.3 |
| 20260830232746 | 98 | 149 | 2.6 | 5.2 | 0.00 | 0.00 | 0.00 | 31 | 1012.4 |
| 20260830232245 | 98 | 148 | 2.6 | 5.2 | 0.00 | 0.00 | 0.00 | 31 | 1012.3 |
| 20260830231746 | 99 | 146 | 2.6 | 4.3 | 0.00 | 0.00 | 0.00 | 32 | 1012.3 |
| 20260830230745 | 99 | 141 | 2.6 | 5.2 | 0.00 | 0.00 | 0.00 | 30 | 1012.3 |
| 20260830230246 | 99 | 145 | 2.6 | 5.2 | 0.00 | 0.00 | 0.00 | 32 | 1012.4 |
| 20260830225745 | 99 | 154 | 2.6 | 5.2 | 0.00 | 0.00 | 0.00 | 32 | 1012.4 |
| 20260830225246 | 99 | 152 | 2.6 | 6.1 | 0.00 | 0.00 | 0.00 | 32 | 1012.4 |
| 20260830224747 | 99 | 144 | 3.5 | 6.1 | 0.00 | 0.00 | 0.00 | 32 | 1012.5 |
| 20260830223746 | 99 | 153 | 3.5 | 7.8 | 0.00 | 0.00 | 0.00 | 33 | 1012.5 |
| 20260830222745 | 100 | 150 | 1.7 | 6.1 | 0.00 | 0.00 | 0.00 | 30 | 1012.5 |
| 20260830222247 | 100 | 159 | 1.7 | 6.1 | 0.00 | 0.00 | 0.00 | 30 | 1012.5 |
| 20260830221746 | 100 | 158 | 2.6 | 7.0 | 0.00 | 0.00 | 0.00 | 29 | 1012.6 |
| 20260830221246 | 99 | 149 | 2.6 | 7.0 | 0.00 | 0.00 | 0.00 | 30 | 1012.6 |
| 20260830220747 | 99 | 148 | 2.6 | 6.1 | 0.00 | 0.00 | 0.00 | 29 | 1012.7 |
| 20260830220246 | 100 | 152 | 2.6 | 6.1 | 0.00 | 0.00 | 0.00 | 28 | 1012.7 |
| 20260830215747 | 100 | 164 | 2.6 | 5.2 | 0.00 | 0.00 | 0.00 | 30 | 1012.7 |
| 20260830214746 | 99 | 153 | 2.6 | 4.3 | 0.00 | 0.00 | 0.00 | 32 | 1012.7 |
| 20260830214246 | 100 | 149 | 2.6 | 5.2 | 0.00 | 0.00 | 0.00 | 30 | 1012.7 |
| 20260830213746 | 100 | 147 | 3.5 | 7.0 | 0.00 | 0.00 | 0.00 | 29 | 1012.7 |
| 20260830213246 | 99 | 140 | 3.5 | 7.8 | 0.00 | 0.00 | 0.00 | 31 | 1012.8 |
| 20260830212747 | 99 | 139 | 3.5 | 7.8 | 0.00 | 0.00 | 0.00 | 31 | 1012.8 |
| 20260830212246 | 99 | 145 | 3.5 | 7.0 | 0.00 | 0.00 | 0.00 | 32 | 1012.9 |
| 20260830211747 | 98 | 143 | 2.6 | 7.0 | 0.00 | 0.00 | 0.00 | 32 | 1012.9 |
| 20260830211246 | 99 | 148 | 2.6 | 7.0 | 0.00 | 0.00 | 0.00 | 32 | 1013.1 |
| 20260830210247 | 99 | 188 | 1.7 | 5.2 | 0.00 | 0.00 | 0.00 | 33 | 1013.2 |
| 20260830205746 | 100 | 176 | 1.7 | 4.3 | 0.00 | 0.00 | 0.00 | 32 | 1013.3 |
| 20260830204247 | 100 | 161 | 2.6 | 6.1 | 0.00 | 0.00 | 0.00 | 31 | 1013.5 |
| 20260830203747 | 100 | 142 | 2.6 | 6.1 | 0.00 | 0.00 | 0.00 | 30 | 1013.5 |
| 20260830202746 | 100 | 143 | 3.5 | 7.0 | 0.00 | 0.00 | 0.00 | 31 | 1013.6 |
| 20260830202246 | 100 | 149 | 3.5 | 7.0 | 0.00 | 0.00 | 0.00 | 30 | 1013.7 |
| 20260830201746 | 100 | 156 | 3.5 | 6.1 | 0.00 | 0.00 | 0.00 | 31 | 1013.8 |
| 20260830201246 | 99 | 149 | 3.5 | 7.8 | 0.00 | 0.00 | 0.00 | 32 | 1013.9 |
| 20260830200746 | 99 | 151 | 3.5 | 8.7 | 0.00 | 0.00 | 0.00 | 31 | 1013.9 |
| 20260830200248 | 99 | 159 | 3.5 | 8.7 | 0.00 | 0.00 | 0.00 | 32 | 1013.9 |
| 20260830195745 | 99 | 159 | 3.5 | 7.8 | 0.00 | 0.00 | 0.00 | 33 | 1014.0 |
| 20260830195246 | 99 | 160 | 2.6 | 7.8 | 0.00 | 0.00 | 0.00 | 33 | 1014.1 |
| 20260830194745 | 99 | 156 | 3.5 | 7.8 | 0.00 | 0.00 | 0.00 | 32 | 1014.2 |
| 20260830194246 | 99 | 154 | 3.5 | 7.8 | 0.00 | 0.00 | 0.00 | 31 | 1014.2 |
| 20260830193746 | 98 | 169 | 2.6 | 7.0 | 0.00 | 0.00 | 0.00 | 33 | 1014.3 |
| 20260830192746 | 99 | 154 | 3.5 | 8.7 | 0.00 | 0.00 | 0.00 | 31 | 1014.6 |
| 20260830192247 | 99 | 154 | 2.6 | 6.1 | 0.00 | 0.00 | 0.00 | 33 | 1014.6 |
| 20260830191746 | 98 | 153 | 2.6 | 6.1 | 0.00 | 0.00 | 0.00 | 35 | 1014.7 |
| 20260830191247 | 98 | 161 | 2.6 | 7.0 | 0.00 | 0.00 | 0.00 | 35 | 1014.8 |
| 20260830190746 | 98 | 149 | 3.5 | 7.8 | 0.00 | 0.00 | 0.00 | 34 | 1014.9 |
| 20260830190246 | 98 | 146 | 3.5 | 7.8 | 0.00 | 0.00 | 0.00 | 35 | 1014.9 |
| 20260830185746 | 98 | 148 | 2.6 | 7.8 | 0.00 | 0.00 | 0.00 | 35 | 1015.0 |
| 20260830185246 | 98 | 148 | 2.6 | 5.2 | 0.00 | 0.00 | 0.00 | 36 | 1015.0 |
| 20260830184746 | 98 | 157 | 2.6 | 5.2 | 0.00 | 0.00 | 0.00 | 37 | 1015.1 |
| 20260830184246 | 98 | 157 | 2.6 | 7.8 | 0.00 | 0.00 | 0.00 | 37 | 1015.1 |
| 20260830183247 | 97 | 158 | 3.5 | 7.8 | 0.00 | 0.00 | 0.00 | 36 | 1015.3 |
| 20260830182747 | 97 | 170 | 2.6 | 7.0 | 0.00 | 0.00 | 0.00 | 37 | 1015.5 |
| 20260830182247 | 96 | 168 | 2.6 | 7.8 | 0.00 | 0.00 | 0.00 | 38 | 1015.5 |
| 20260830181747 | 96 | 155 | 2.6 | 7.8 | 0.00 | 0.00 | 0.00 | 39 | 1015.7 |
| 20260830181247 | 96 | 155 | 2.6 | 7.0 | 0.00 | 0.00 | 0.00 | 37 | 1015.7 |
| 20260830180748 | 96 | 160 | 3.5 | 6.1 | 0.00 | 0.00 | 0.00 | 36 | 1015.8 |
| 20260830180246 | 96 | 156 | 3.5 | 6.1 | 0.00 | 0.00 | 0.00 | 37 | 1015.9 |
| 20260830175746 | 96 | 151 | 2.6 | 6.1 | 0.00 | 0.00 | 0.00 | 38 | 1015.9 |
| 20260830174747 | 96 | 154 | 3.5 | 7.8 | 0.00 | 0.00 | 0.00 | 38 | 1016.2 |
| 20260830174246 | 96 | 151 | 3.5 | 7.0 | 0.00 | 0.00 | 0.00 | 39 | 1016.3 |
| 20260830173745 | 95 | 147 | 3.5 | 8.7 | 0.00 | 0.00 | 0.00 | 39 | 1016.4 |
| 20260830173247 | 94 | 148 | 3.5 | 8.7 | 0.00 | 0.00 | 0.00 | 41 | 1016.5 |
| 20260830172746 | 95 | 165 | 2.6 | 7.8 | 0.00 | 0.00 | 0.00 | 41 | 1016.6 |
| 20260830172246 | 94 | 184 | 2.6 | 7.8 | 0.00 | 0.00 | 0.00 | 41 | 1016.6 |
| 20260830171246 | 94 | 175 | 2.6 | 4.3 | 0.00 | 0.00 | 0.00 | 45 | 1016.8 |
| 20260830165746 | 94 | 181 | 2.6 | 6.1 | 0.00 | 0.00 | 0.00 | 44 | 1016.9 |
| 20260830165246 | 94 | 181 | 2.6 | 6.1 | 0.00 | 0.00 | 0.00 | 44 | 1017.0 |
| 20260830164746 | 93 | 190 | 2.6 | 5.2 | 0.00 | 0.00 | 0.00 | 45 | 1017.0 |
| 20260830164247 | 93 | 173 | 2.6 | 5.2 | 0.00 | 0.00 | 0.00 | 44 | 1017.1 |
| 20260830163747 | 93 | 168 | 2.6 | 6.1 | 0.00 | 0.00 | 0.00 | 47 | 1017.1 |
| 20260830163247 | 92 | 177 | 1.7 | 6.1 | 0.00 | 0.00 | 0.00 | 49 | 1017.2 |
| 20260830162746 | 92 | 189 | 1.7 | 5.2 | 0.00 | 0.00 | 0.00 | 48 | 1017.2 |
| 20260830162246 | 92 | 194 | 1.7 | 8.7 | 0.00 | 0.00 | 0.00 | 49 | 1017.3 |
| 20260830161746 | 91 | 178 | 2.6 | 8.7 | 0.00 | 0.00 | 0.00 | 49 | 1017.3 |
| 20260830161246 | 91 | 162 | 2.6 | 6.1 | 0.00 | 0.00 | 0.00 | 50 | 1017.3 |
| 20260830160746 | 91 | 170 | 1.7 | 6.1 | 0.00 | 0.00 | 0.00 | 52 | 1017.3 |
| 20260830160246 | 90 | 190 | 1.7 | 4.3 | 0.00 | 0.00 | 0.00 | 52 | 1017.2 |
| 20260830155746 | 90 | 189 | 1.7 | 6.1 | 0.00 | 0.00 | 0.00 | 53 | 1017.2 |
| 20260830155246 | 90 | 188 | 1.7 | 6.1 | 0.00 | 0.00 | 0.00 | 55 | 1017.2 |
| 20260830154747 | 89 | 179 | 1.7 | 5.2 | 0.00 | 0.00 | 0.00 | 55 | 1017.2 |
| 20260830154246 | 89 | 179 | 1.7 | 5.2 | 0.00 | 0.00 | 0.00 | 56 | 1017.2 |
| 20260830153746 | 88 | 170 | 1.7 | 4.3 | 0.00 | 0.00 | 0.00 | 58 | 1017.3 |
| 20260830153246 | 88 | 167 | 1.7 | 6.1 | 0.00 | 0.00 | 0.00 | 56 | 1017.3 |
| 20260830152746 | 88 | 188 | 1.7 | 6.1 | 0.00 | 0.00 | 0.00 | 58 | 1017.3 |
| 20260830151746 | 88 | 198 | 1.7 | 6.1 | 0.00 | 0.00 | 0.00 | 60 | 1017.2 |
| 20260830151246 | 87 | 191 | 1.7 | 4.3 | 0.00 | 0.00 | 0.00 | 62 | 1017.2 |
| 20260830150746 | 86 | 179 | 1.7 | 4.3 | 0.00 | 0.00 | 0.00 | 62 | 1017.2 |
| 20260830145747 | 85 | 173 | 1.7 | 4.3 | 0.00 | 0.00 | 0.00 | 64 | 1017.1 |
| 20260830145246 | 85 | 170 | 1.7 | 4.3 | 0.00 | 0.00 | 0.00 | 65 | 1017.2 |
| 20260830144748 | 85 | 170 | 1.7 | 4.3 | 0.00 | 0.00 | 0.00 | 66 | 1017.2 |
| 20260830144247 | 84 | 165 | 1.7 | 4.3 | 0.00 | 0.00 | 0.00 | 66 | 1017.1 |
| 20260830143247 | 84 | 178 | 0.9 | 3.5 | 0.00 | 0.00 | 0.00 | 67 | 1017.1 |
| 20260830142746 | 84 | 178 | 1.7 | 3.5 | 0.00 | 0.00 | 0.00 | 67 | 1017.2 |
| 20260830142247 | 83 | 184 | 1.7 | 2.6 | 0.00 | 0.00 | 0.00 | 69 | 1017.1 |
| 20260830141746 | 83 | 194 | 1.7 | 2.6 | 0.00 | 0.00 | 0.00 | 69 | 1017.0 |
| 20260830141246 | 82 | 178 | 1.7 | 4.3 | 0.00 | 0.00 | 0.00 | 69 | 1017.0 |
| 20260830140748 | 82 | 163 | 1.7 | 4.3 | 0.00 | 0.00 | 0.00 | 70 | 1017.0 |
| 20260830140246 | 82 | 159 | 1.7 | 4.3 | 0.00 | 0.00 | 0.00 | 71 | 1017.0 |
| 20260830135747 | 82 | 169 | 0.9 | 4.3 | 0.00 | 0.00 | 0.00 | 72 | 1017.1 |
| 20260830135246 | 81 | 178 | 0.9 | 3.5 | 0.00 | 0.00 | 0.00 | 73 | 1017.0 |
| 20260830134746 | 80 | 164 | 0.9 | 3.5 | 0.00 | 0.00 | 0.00 | 74 | 1016.9 |
| 20260830134246 | 80 | 159 | 0.9 | 3.5 | 0.00 | 0.00 | 0.00 | 75 | 1016.9 |
| 20260830133746 | 79 | 169 | 0.9 | 2.6 | 0.00 | 0.00 | 0.00 | 76 | 1016.9 |
| 20260830133247 | 79 | 174 | 0.9 | 2.6 | 0.00 | 0.00 | 0.00 | 76 | 1016.8 |
| 20260830132746 | 79 | 170 | 0.9 | 1.7 | 0.00 | 0.00 | 0.00 | 77 | 1016.7 |
| 20260830132246 | 79 | 174 | 0.9 | 1.7 | 0.00 | 0.00 | 0.00 | 78 | 1016.7 |
| 20260830131746 | 78 | 171 | 0.9 | 1.7 | 0.00 | 0.00 | 0.00 | 78 | 1016.6 |
| 20260830131247 | 78 | 172 | 0.9 | 1.7 | 0.00 | 0.00 | 0.00 | 79 | 1016.6 |
| 20260830130748 | 78 | 173 | 0.9 | 2.6 | 0.00 | 0.00 | 0.00 | 79 | 1016.6 |
| 20260830130246 | 77 | 166 | 0.9 | 2.6 | 0.00 | 0.00 | 0.00 | 79 | 1016.6 |
| 20260830125747 | 77 | 166 | 0.9 | 2.6 | 0.00 | 0.00 | 0.00 | 80 | 1016.6 |
| 20260830124747 | 77 | 0 | 0.0 | 1.7 | 0.00 | 0.00 | 0.00 | 81 | 1016.5 |
| 20260830123247 | 76 | 159 | 0.9 | 3.5 | 0.00 | 0.00 | 0.00 | 82 | 1016.4 |
| 20260830122746 | 76 | 162 | 0.9 | 1.7 | 0.00 | 0.00 | 0.00 | 82 | 1016.3 |
| 20260830121746 | 76 | 0 | 0.0 | 1.7 | 0.00 | 0.00 | 0.00 | 82 | 1016.0 |
| 20260830121248 | 76 | 169 | 0.9 | 1.7 | 0.00 | 0.00 | 0.00 | 82 | 1016.0 |
| 20260830120246 | 76 | 0 | 0.0 | 0.9 | 0.00 | 0.00 | 0.00 | 82 | 1015.8 |
| 20260830115747 | 76 | 0 | 0.0 | 0.0 | 0.00 | 0.00 | 0.00 | 82 | 1015.8 |
| 20260830115248 | 77 | 0 | 0.0 | 0.0 | 0.00 | 0.00 | 0.00 | 81 | 1015.7 |
| 20260830114748 | 77 | 0 | 0.0 | 0.9 | 0.00 | 0.00 | 0.00 | 81 | 1015.6 |
| 20260830113747 | 77 | 0 | 0.0 | 0.9 | 0.00 | 0.00 | 0.00 | 81 | 1015.5 |
| 20260830113247 | 77 | 0 | 0.0 | 0.9 | 0.00 | 0.00 | 0.00 | 81 | 1015.5 |
| 20260830112747 | 77 | 0 | 0.0 | 0.9 | 0.00 | 0.00 | 0.00 | 80 | 1015.4 |
| 20260830112247 | 77 | 0 | 0.0 | 0.9 | 0.00 | 0.00 | 0.00 | 80 | 1015.4 |
| 20260830111746 | 77 | 0 | 0.0 | 0.9 | 0.00 | 0.00 | 0.00 | 80 | 1015.4 |
| 20260830111247 | 78 | 0 | 0.0 | 0.9 | 0.00 | 0.00 | 0.00 | 80 | 1015.4 |
| 20260830110746 | 78 | 0 | 0.0 | 0.9 | 0.00 | 0.00 | 0.00 | 79 | 1015.3 |
| 20260830110247 | 78 | 0 | 0.0 | 0.9 | 0.00 | 0.00 | 0.00 | 79 | 1015.3 |
| 20260830105247 | 78 | 0 | 0.0 | 0.9 | 0.00 | 0.00 | 0.00 | 78 | 1015.2 |
| 20260830104747 | 78 | 0 | 0.0 | 0.9 | 0.00 | 0.00 | 0.00 | 78 | 1015.2 |
| 20260830104247 | 78 | 0 | 0.0 | 0.9 | 0.00 | 0.00 | 0.00 | 78 | 1015.2 |
| 20260830103246 | 78 | 172 | 0.9 | 1.7 | 0.00 | 0.00 | 0.00 | 78 | 1015.1 |
| 20260830102747 | 78 | 177 | 0.9 | 1.7 | 0.00 | 0.00 | 0.00 | 78 | 1015.2 |
| 20260830102247 | 79 | 0 | 0.0 | 1.7 | 0.00 | 0.00 | 0.00 | 77 | 1015.2 |
| 20260830101748 | 79 | 0 | 0.0 | 1.7 | 0.00 | 0.00 | 0.00 | 77 | 1015.1 |
| 20260830101248 | 79 | 0 | 0.0 | 1.7 | 0.00 | 0.00 | 0.00 | 77 | 1015.0 |
| 20260830100247 | 79 | 0 | 0.0 | 0.9 | 0.00 | 0.00 | 0.00 | 77 | 1015.2 |
| 20260830095747 | 79 | 0 | 0.0 | 0.9 | 0.00 | 0.00 | 0.00 | 76 | 1015.1 |
| 20260830095247 | 80 | 0 | 0.0 | 0.9 | 0.00 | 0.00 | 0.00 | 76 | 1015.0 |
| 20260830094246 | 80 | 0 | 0.0 | 1.7 | 0.00 | 0.00 | 0.00 | 75 | 1015.1 |
| 20260830093246 | 80 | 0 | 0.0 | 0.9 | 0.00 | 0.00 | 0.00 | 75 | 1015.1 |
| 20260830092747 | 80 | 0 | 0.0 | 1.7 | 0.00 | 0.00 | 0.00 | 74 | 1015.1 |
| 20260830091747 | 81 | 191 | 0.9 | 3.5 | 0.00 | 0.00 | 0.00 | 73 | 1015.1 |
| 20260830091247 | 81 | 188 | 0.9 | 3.5 | 0.00 | 0.00 | 0.00 | 73 | 1015.1 |
| 20260830090747 | 81 | 192 | 0.9 | 2.6 | 0.00 | 0.00 | 0.00 | 73 | 1015.1 |
| 20260830085247 | 82 | 186 | 0.9 | 4.3 | 0.00 | 0.00 | 0.00 | 72 | 1015.2 |
| 20260830084747 | 82 | 183 | 0.9 | 3.5 | 0.00 | 0.00 | 0.00 | 72 | 1015.1 |
| 20260830084247 | 82 | 178 | 0.9 | 3.5 | 0.00 | 0.00 | 0.00 | 72 | 1015.1 |
| 20260830083747 | 82 | 174 | 0.9 | 3.5 | 0.00 | 0.00 | 0.00 | 72 | 1015.1 |
| 20260830083248 | 82 | 175 | 0.9 | 4.3 | 0.00 | 0.00 | 0.00 | 72 | 1015.1 |
| 20260830081746 | 82 | 181 | 0.9 | 2.6 | 0.00 | 0.00 | 0.00 | 71 | 1015.0 |
| 20260830081247 | 82 | 187 | 1.7 | 3.5 | 0.00 | 0.00 | 0.00 | 70 | 1015.0 |
| 20260830075746 | 83 | 175 | 0.9 | 2.6 | 0.00 | 0.00 | 0.00 | 69 | 1014.9 |
| 20260830074747 | 83 | 191 | 0.9 | 3.5 | 0.00 | 0.00 | 0.00 | 69 | 1015.0 |
| 20260830073747 | 83 | 182 | 0.9 | 1.7 | 0.00 | 0.00 | 0.00 | 68 | 1015.0 |
| 20260830073248 | 83 | 192 | 0.9 | 1.7 | 0.00 | 0.00 | 0.00 | 68 | 1015.0 |
| 20260830072748 | 84 | 194 | 0.9 | 3.5 | 0.00 | 0.00 | 0.00 | 67 | 1015.0 |
| 20260830071247 | 84 | 184 | 0.9 | 2.6 | 0.00 | 0.00 | 0.00 | 66 | 1015.1 |
| 20260830070748 | 84 | 184 | 0.9 | 3.5 | 0.00 | 0.00 | 0.00 | 66 | 1015.0 |
| 20260830065748 | 84 | 186 | 0.9 | 3.5 | 0.00 | 0.00 | 0.00 | 65 | 1015.0 |
| 20260830065248 | 84 | 188 | 0.9 | 3.5 | 0.00 | 0.00 | 0.00 | 65 | 1015.0 |
| 20260830064747 | 84 | 181 | 0.9 | 2.6 | 0.00 | 0.00 | 0.00 | 64 | 1015.1 |
| 20260830064247 | 84 | 182 | 0.9 | 3.5 | 0.00 | 0.00 | 0.00 | 64 | 1015.0 |
| 20260830063747 | 84 | 184 | 1.7 | 8.7 | 0.00 | 0.00 | 0.00 | 64 | 1015.1 |
| 20260830063248 | 85 | 182 | 1.7 | 8.7 | 0.00 | 0.00 | 0.00 | 63 | 1015.1 |
| 20260830062748 | 85 | 176 | 0.9 | 2.6 | 0.00 | 0.00 | 0.00 | 63 | 1015.1 |
| 20260830062247 | 84 | 173 | 0.9 | 2.6 | 0.00 | 0.00 | 0.00 | 62 | 1015.2 |
| 20260830061248 | 84 | 181 | 0.9 | 3.5 | 0.00 | 0.00 | 0.00 | 61 | 1015.2 |
| 20260830060747 | 84 | 177 | 0.9 | 3.5 | 0.00 | 0.00 | 0.00 | 60 | 1015.2 |
| 20260830060247 | 84 | 179 | 0.9 | 2.6 | 0.00 | 0.00 | 0.00 | 60 | 1015.1 |
| 20260830055747 | 84 | 185 | 0.9 | 1.7 | 0.00 | 0.00 | 0.00 | 59 | 1015.1 |
| 20260830055248 | 84 | 178 | 0.9 | 1.7 | 0.00 | 0.00 | 0.00 | 59 | 1015.0 |
| 20260830054247 | 84 | 178 | 0.9 | 2.6 | 0.00 | 0.00 | 0.00 | 57 | 1014.8 |
| 20260830053746 | 84 | 176 | 0.9 | 2.6 | 0.00 | 0.00 | 0.00 | 57 | 1014.9 |
| 20260830053247 | 84 | 177 | 0.9 | 3.5 | 0.00 | 0.00 | 0.00 | 56 | 1014.8 |
| 20260830052747 | 84 | 176 | 0.9 | 3.5 | 0.00 | 0.00 | 0.00 | 56 | 1014.9 |
| 20260830052247 | 84 | 173 | 0.9 | 2.6 | 0.00 | 0.00 | 0.00 | 56 | 1014.8 |
| 20260830051248 | 85 | 173 | 0.9 | 1.7 | 0.00 | 0.00 | 0.00 | 55 | 1014.8 |
| 20260830050746 | 85 | 174 | 0.9 | 1.7 | 0.00 | 0.00 | 0.00 | 55 | 1014.8 |
| 20260830045248 | 85 | 0 | 0.0 | 0.9 | 0.00 | 0.00 | 0.00 | 55 | 1014.9 |
| 20260830044747 | 85 | 185 | 0.9 | 1.7 | 0.00 | 0.00 | 0.00 | 55 | 1014.9 |
| 20260830044248 | 86 | 186 | 0.9 | 1.7 | 0.00 | 0.00 | 0.00 | 54 | 1014.9 |
| 20260830043246 | 86 | 169 | 0.9 | 1.7 | 0.00 | 0.00 | 0.00 | 54 | 1014.9 |
| 20260830042747 | 86 | 166 | 0.9 | 0.9 | 0.00 | 0.00 | 0.00 | 54 | 1015.0 |
| 20260830042246 | 86 | 167 | 0.9 | 0.9 | 0.00 | 0.00 | 0.00 | 53 | 1015.0 |
| 20260830041747 | 87 | 0 | 0.0 | 1.7 | 0.00 | 0.00 | 0.00 | 53 | 1015.0 |
| 20260830041247 | 87 | 176 | 0.9 | 1.7 | 0.00 | 0.00 | 0.00 | 52 | 1015.0 |
| 20260830040748 | 87 | 183 | 0.9 | 1.7 | 0.00 | 0.00 | 0.00 | 52 | 1015.0 |
| 20260830040247 | 87 | 188 | 0.9 | 1.7 | 0.00 | 0.00 | 0.00 | 52 | 1015.0 |
| 20260830035749 | 88 | 189 | 0.9 | 1.7 | 0.00 | 0.00 | 0.00 | 51 | 1014.9 |
| 20260830035247 | 88 | 189 | 0.9 | 1.7 | 0.00 | 0.00 | 0.00 | 51 | 1014.9 |
| 20260830034747 | 88 | 187 | 0.9 | 1.7 | 0.00 | 0.00 | 0.00 | 51 | 1014.8 |
| 20260830033747 | 88 | 189 | 0.9 | 2.6 | 0.00 | 0.00 | 0.00 | 50 | 1014.9 |
| 20260830033247 | 89 | 188 | 0.9 | 1.7 | 0.00 | 0.00 | 0.00 | 49 | 1014.9 |
| 20260830032747 | 89 | 182 | 0.9 | 1.7 | 0.00 | 0.00 | 0.00 | 49 | 1014.8 |
| 20260830032247 | 89 | 181 | 0.9 | 2.6 | 0.00 | 0.00 | 0.00 | 49 | 1014.8 |
| 20260830031748 | 89 | 179 | 0.9 | 2.6 | 0.00 | 0.00 | 0.00 | 48 | 1014.8 |
| 20260830031247 | 89 | 173 | 0.9 | 2.6 | 0.00 | 0.00 | 0.00 | 48 | 1014.7 |
| 20260830030747 | 90 | 164 | 0.9 | 2.6 | 0.00 | 0.00 | 0.00 | 48 | 1014.7 |
| 20260830030247 | 89 | 150 | 0.9 | 2.6 | 0.00 | 0.00 | 0.00 | 48 | 1014.7 |
| 20260830025249 | 89 | 147 | 0.9 | 1.7 | 0.00 | 0.00 | 0.00 | 48 | 1014.6 |
| 20260830024249 | 90 | 153 | 0.9 | 1.7 | 0.00 | 0.00 | 0.00 | 47 | 1014.5 |
| 20260830023247 | 90 | 153 | 0.9 | 2.6 | 0.00 | 0.00 | 0.00 | 47 | 1014.2 |
| 20260830022247 | 90 | 155 | 0.9 | 2.6 | 0.00 | 0.00 | 0.00 | 46 | 1014.0 |